Starlink 32715

operational
NORAD ID: 62569 Int'l Des: 2025-006 Owner: SPXS Country: US Constellation: starlink
LEOCIRCULAR

Über Starlink 32715

Beschreibung wird geladen...

Live-Position

3D-Globus wird geladen...

Nächste Überflüge

Höhenverlauf

Altitude vs Time

uPlot chart will show altitude changes over time

Zweizeiliger Elementsatz

1 62569U 25006R 25300.26305504 .00025600 00000-0 93649-3 0 9993
2 62569 43.0021 326.3721 0001199 270.3917 89.6797 15.27583891 44455
Epoch: 27. Okt. 2025 • Age: 64 hours

Aktueller Status

Höhe 484.1 km
Geschwindigkeit 7.62 km/s
Subsatellitenpunkt -11.45°S, 78.39°W
Startdatum 10. Jan. 2025
Alter 0.7 years
Typ internet

Technische Details

Klassifizierung Payload
Masse 730.00 kg
Trockenmasse 700.00 kg
Gesamtmasse 730.00 kg
Länge 0.30 m
Durchmesser 4.10 m
Spannweite 29.00 m
Form Box + pan
Hersteller SPXS
Bus-Typ Starlink V2M
Phasenstatus In Orbit
Besitzer/Staat SPXS/US

Große Konstellationen

Loading constellations...